Temperature
7 6 6 6 6 7 7 6 6 6 6 5 5 4 5 4 4 3 3 3 4 4 5 4 5 5 5 5 6 5 5 5 5 5 5 5 5 5 5 5 5 5 5 5
5 5 6 6 6 6 6 6 6 5 5 5 4 4 4 3 3 3 3 3 3 3 3 4 4 4 5 5 5 5 5 5 5 5 5 5 4 4 4 4 4 4 4 4
5 5 6 6 6 6 6 5 5 5 4 4 4 4 4 3 3 3 3 3 3 3 3 3 3 4 4 4 4 4 4 4 4 4 4 4 4 4 3 4 4 4 4 4
4 5 5 5 5 5 5 5 5 5 4 4 4 4 4 3 2 2 2 1 2 2 2 2 3 3 3 3 4 4 4 4 4 3 3 3 3 3 3 3 3 3 3 3
4 4 4 5 5 5 5 5 5 4 4 3 3 3 3 2 2 1 1 1 1 1 1 2 2 3 3 3 3 3 3 3 3 3 3 3 3 3 3 3 3 3 3 3
3 4 4 4 4 4 4 4 4 3 3 4 3 3 3 1 1 1 -0 -0 0 0 1 1 2 2 3 3 2 2 2 2 2 2 2 2 2 2 2 2 2 2 2 2
3 4 3 4 4 4 4 3 3 3 3 3 3 3 2 0 -0 -1 -1 -1 -0 -0 -0 0 1 1 2 2 2 2 2 2 2 2 2 2 2 2 2 2 2 2 2 1
3 3 3 3 3 3 3 3 3 3 3 3 2 2 1 -0 -1 -1 -1 -1 -1 -1 -1 -1 -0 0 1 1 1 1 1 1 1 1 1 1 1 1 1 1 1 1 1 1
2 2 2 2 2 3 3 2 2 2 2 2 1 0 -0 -1 -1 -2 -2 -2 -2 -2 -2 -2 -1 -1 -0 0 0 0 0 1 1 1 1 1 1 1 1 1 0 0 0 0
1 1 1 2 2 2 2 1 1 2 2 2 2 0 -0 -1 -2 -3 -3 -4 -4 -3 -3 -3 -2 -2 -2 -1 -1 -0 -0 -0 0 -0 -0 -0 0 0 0 0 0 0 -0 -0
0 0 1 1 1 1 1 1 0 0 1 1 1 1 -1 -2 -3 -4 -4 -5 -5 -4 -4 -4 -3 -3 -2 -2 -2 -1 -1 -1 -1 -1 -1 -1 -0 -0 -1 -1 -0 -0 -1 -1
-0 -1 -1 0 0 -0 0 -0 -1 0 -0 -1 -0 -1 -3 -4 -5 -5 -5 -5 -5 -5 -5 -4 -4 -4 -3 -3 -3 -2 -2 -2 -2 -2 -1 -1 -1 -1 -1 -1 -1 -1 -1 -1
-0 -1 -0 1 0 -1 -1 -1 -2 -1 -2 -2 -1 -1 -4 -5 -6 -6 -6 -6 -6 -6 -5 -5 -5 -5 -4 -4 -4 -3 -3 -3 -3 -3 -2 -2 -2 -2 -2 -2 -2 -2 -2 -2
-0 -2 -1 0 0 -1 -2 -2 -2 -2 -2 -2 -2 -2 -4 -6 -6 -6 -6 -6 -6 -6 -6 -6 -6 -5 -5 -5 -5 -4 -4 -4 -3 -3 -3 -3 -3 -2 -2 -2 -3 -3 -3 -3
-1 -2 -2 -2 -2 -2 -2 -2 -3 -3 -3 -3 -3 -4 -5 -7 -7 -7 -7 -7 -7 -7 -7 -7 -7 -6 -6 -6 -5 -5 -5 -4 -4 -4 -4 -3 -3 -3 -3 -3 -3 -3 -3 -3
-3 -3 -3 -3 -2 -3 -3 -3 -4 -4 -4 -4 -4 -5 -7 -7 -7 -7 -8 -8 -8 -8 -8 -8 -7 -7 -7 -6 -6 -6 -5 -5 -5 -5 -4 -4 -4 -4 -4 -4 -4 -4 -4 -4
-4 -4 -3 -3 -4 -3 -4 -5 -5 -5 -6 -7 -6 -7 -8 -8 -8 -8 -8 -8 -8 -8 -8 -8 -8 -8 -8 -7 -7 -6 -6 -6 -5 -5 -5 -5 -5 -5 -5 -5 -5 -5 -4 -4
-4 -4 -4 -4 -4 -3 -4 -6 -6 -6 -8 -8 -8 -8 -9 -9 -9 -8 -8 -8 -9 -9 -9 -9 -9 -8 -8 -8 -7 -7 -7 -6 -6 -6 -6 -6 -6 -5 -5 -5 -5 -5 -5 -5
-5 -5 -5 -5 -5 -5 -5 -6 -7 -7 -7 -9 -9 -9 -9 -9 -9 -8 -8 -9 -9 -10 -9 -9 -9 -9 -8 -8 -8 -8 -7 -7 -7 -7 -6 -6 -6 -6 -6 -6 -6 -6 -6 -6
-6 -6 -6 -5 -4 -4 -5 -8 -8 -7 -7 -9 -9 -10 -10 -10 -9 -9 -9 -10 -10 -10 -10 -10 -10 -9 -9 -9 -9 -8 -8 -8 -8 -7 -7 -7 -7 -7 -7 -7 -7 -7 -6 -6
-7 -7 -7 -6 -6 -6 -8 -9 -8 -7 -7 -9 -9 -10 -10 -11 -10 -10 -10 -11 -11 -10 -10 -10 -10 -10 -10 -9 -9 -9 -9 -9 -8 -8 -8 -8 -7 -7 -7 -7 -7 -7 -7 -7
-7 -8 -8 -8 -7 -6 -9 -9 -9 -9 -9 -10 -10 -10 -11 -11 -11 -11 -11 -11 -11 -11 -11 -11 -11 -10 -10 -10 -10 -10 -9 -9 -9 -9 -8 -8 -8 -8 -8 -8 -8 -8 -8 -8
-9 -9 -9 -8 -8 -9 -10 -10 -9 -10 -10 -10 -11 -11 -11 -11 -11 -11 -12 -12 -12 -12 -12 -11 -11 -11 -11 -11 -11 -10 -10 -10 -10 -9 -9 -9 -9 -9 -9 -8 -8 -8 -8 -8
-11 -11 -10 -10 -10 -10 -10 -10 -10 -10 -10 -11 -11 -11 -11 -12 -12 -12 -12 -12 -12 -12 -12 -12 -12 -12 -11 -11 -11 -11 -11 -11 -10 -10 -10 -9 -9 -9 -9 -9 -9 -9 -9 -9
-11 -12 -11 -11 -11 -11 -10 -10 -10 -11 -11 -11 -11 -11 -12 -12 -12 -12 -13 -13 -13 -13 -13 -13 -12 -12 -12 -12 -12 -11 -11 -11 -11 -11 -10 -10 -10 -10 -10 -10 -10 -10 -9 -10
-12 -12 -11 -10 -11 -12 -11 -10 -11 -11 -11 -12 -12 -12 -12 -12 -13 -13 -13 -13 -13 -13 -13 -13 -13 -13 -12 -12 -12 -12 -12 -12 -11 -11 -11 -11 -11 -11 -11 -10 -10 -10 -10 -10
Wind_Speed
1 2 5 7 8 5 4 5 7 6 2 2 6 9 9 4 1 2 2 2 3 3 3 1 1 1 2 3 4 5 5 5 5 5 5 4 4 3 2 3 5 6 6 7
2 5 8 4 4 4 5 7 7 5 1 3 5 9 7 3 2 3 3 3 3 2 2 2 0 1 2 3 4 5 6 6 6 5 5 3 4 3 2 3 4 5 6 7
4 4 3 3 3 5 6 7 7 6 4 1 2 6 5 3 1 1 1 2 2 2 2 2 1 2 3 3 5 5 6 6 6 5 4 4 3 2 2 2 2 3 6 6
4 4 2 2 4 5 8 6 6 6 4 4 3 5 6 3 2 2 3 3 3 3 3 2 2 2 3 4 4 4 5 5 5 6 7 8 6 4 4 4 3 3 4 5
3 2 2 4 5 4 5 3 4 5 5 4 3 4 6 2 3 5 4 4 4 3 3 3 3 3 3 2 3 3 4 5 5 6 7 8 6 4 3 4 4 4 3 4
4 2 2 3 3 3 2 1 1 0 1 6 7 6 4 2 4 6 5 5 5 4 4 4 3 2 1 0 1 2 3 4 5 6 7 7 7 6 6 6 5 4 3 3
5 3 1 1 2 1 1 2 1 2 2 6 3 4 4 3 2 3 5 6 4 4 4 4 4 3 2 1 1 2 3 4 5 6 6 7 7 7 8 7 7 6 5 4
3 5 2 1 1 2 2 3 3 4 5 4 1 5 3 1 2 4 4 4 5 5 5 5 5 4 3 2 1 2 3 3 4 6 6 5 6 5 5 6 6 6 6 6
2 5 3 4 3 3 2 3 2 2 2 4 4 3 3 3 6 6 7 7 8 7 7 7 6 5 4 3 2 2 3 3 3 4 4 4 5 5 5 5 4 4 4 4
2 5 5 4 2 1 1 3 2 2 3 5 4 3 3 5 7 7 8 8 8 8 7 7 6 6 5 4 3 2 2 2 2 2 3 3 4 5 4 4 4 4 4 4
0 2 5 3 0 2 1 1 1 1 2 3 3 4 1 2 5 6 7 7 7 8 8 8 6 6 6 5 4 3 2 2 1 1 2 2 2 3 3 4 4 4 4 5
0 1 3 4 2 1 2 2 3 3 4 3 2 4 3 4 5 5 7 7 8 8 7 7 7 7 7 7 6 5 4 3 2 1 1 2 2 2 3 4 4 4 4 4
1 1 3 4 2 3 2 2 1 1 1 3 3 5 2 6 7 7 7 8 8 9 9 8 8 7 7 7 6 6 5 4 3 2 1 1 1 2 3 3 3 3 4 4
1 1 4 5 4 2 3 4 2 1 2 4 6 6 6 8 8 9 9 8 8 8 9 9 8 7 7 7 6 6 5 5 4 3 2 1 1 2 2 2 2 3 3 4
2 2 3 5 5 2 3 5 3 3 4 5 6 5 5 7 7 7 7 8 8 9 10 10 9 8 8 8 7 7 6 5 4 3 3 2 1 1 1 1 2 2 2 3
1 1 1 3 2 2 4 6 6 5 4 5 4 4 5 6 6 7 7 8 8 10 10 10 10 9 9 8 7 7 6 5 4 3 3 3 2 1 1 1 1 1 2 2
0 1 1 4 4 4 4 3 2 1 1 1 2 4 7 8 8 8 8 7 8 9 10 10 10 9 8 8 7 6 6 5 3 3 3 3 2 2 2 1 1 1 1 2
2 2 1 2 3 3 3 1 1 1 1 1 2 5 7 8 9 6 4 6 8 10 10 9 9 9 8 7 7 7 6 4 3 3 4 3 3 3 2 1 1 2 2 2
1 3 2 1 2 5 3 1 1 1 2 1 4 7 8 8 6 2 4 7 8 8 8 8 8 8 8 8 7 7 6 4 4 4 4 4 3 3 3 2 2 2 1 2
3 2 2 1 2 4 3 2 3 1 3 2 3 5 7 7 5 4 8 9 9 8 8 8 7 7 7 8 7 6 6 5 5 5 5 4 3 3 3 3 2 2 2 2
2 2 1 2 4 5 3 3 1 1 4 5 4 4 4 3 4 7 9 9 8 8 8 8 7 7 7 7 6 6 6 6 6 6 5 5 4 3 3 3 2 2 2 2
3 2 2 2 3 5 1 2 2 3 3 3 4 4 5 6 7 8 8 8 8 8 8 8 7 8 7 7 6 7 7 7 7 6 6 5 4 3 3 2 2 1 1 2
3 4 3 5 4 1 1 1 1 1 3 3 4 5 5 6 8 8 8 8 7 8 8 7 7 8 8 7 6 7 8 7 7 6 6 5 5 4 3 2 2 2 2 2
2 0 1 3 4 3 3 2 2 2 3 4 4 5 5 6 8 8 8 7 7 7 7 7 7 8 8 8 7 7 7 7 6 6 6 5 4 4 3 3 2 2 2 3
3 2 2 4 4 4 3 2 3 4 4 4 5 5 5 6 8 7 7 7 7 8 7 7 7 8 9 8 8 8 7 6 6 6 5 5 4 4 4 4 3 4 4 4
3 4 4 5 3 3 5 3 3 4 5 5 5 6 6 5 7 7 7 7 7 7 7 7 7 8 8 8 8 8 7 6 5 6 5 4 4 4 3 4 4 5 5 7
Wind_Direction
30 117 219 222 217 234 235 242 259 262 230 214 239 261 273 281 263 272 280 267 249 253 270 279 189 168 165 165 167 173 170 169 162 168 166 163 167 162 143 129 144 147 144 141
39 237 243 242 234 240 245 253 260 283 294 234 258 269 271 249 220 233 252 272 266 294 334 335 261 173 188 195 192 183 183 179 181 184 175 167 153 161 152 131 139 152 149 148
215 252 267 229 235 236 247 238 246 262 310 263 278 286 265 258 228 337 340 331 313 272 278 292 268 218 204 209 207 203 194 188 185 172 151 132 117 111 141 167 170 160 158 154
247 277 292 261 251 235 255 242 241 247 247 253 194 268 267 252 285 306 328 339 329 324 315 302 292 260 228 227 215 208 195 189 183 170 170 168 175 181 191 186 181 162 161 156
264 284 282 258 252 228 245 261 247 243 223 246 229 228 272 333 301 306 315 317 313 316 317 307 291 264 245 225 208 208 194 191 186 182 182 181 187 185 168 164 171 174 171 165
262 273 232 245 275 241 264 332 299 173 173 243 223 210 267 276 287 315 321 320 320 322 321 320 320 323 302 249 196 193 191 198 194 190 189 189 187 179 171 173 182 185 184 182
305 291 303 2 358 356 39 79 348 318 257 248 208 212 245 279 330 330 322 322 325 331 339 343 345 336 314 294 229 205 195 207 201 194 197 197 193 188 189 187 190 187 188 196
300 290 292 328 240 224 226 186 199 234 241 275 255 229 234 291 355 356 348 350 1 360 357 354 349 341 321 302 271 224 216 220 208 201 203 197 193 195 198 195 192 194 197 199
262 273 313 314 297 179 176 211 216 192 262 267 257 278 290 359 3 6 8 12 6 1 2 360 356 352 344 334 308 252 228 228 214 208 201 194 192 195 200 196 195 195 196 191
215 275 299 318 1 9 180 156 112 178 237 260 278 268 282 328 339 349 359 2 356 355 356 355 353 352 350 346 343 340 287 242 228 204 200 205 196 198 197 189 192 196 196 190
198 238 306 339 243 247 102 129 157 189 208 214 268 274 324 328 349 352 356 359 355 354 352 350 351 352 353 358 357 357 354 343 298 226 205 205 203 195 192 195 202 202 199 193
219 153 284 279 288 4 144 178 168 199 248 214 223 264 20 21 11 5 356 355 355 354 353 354 357 1 2 359 355 356 353 349 334 304 222 206 195 181 193 206 209 205 203 202
116 102 332 337 353 20 25 1 349 177 172 201 210 256 11 14 7 2 356 351 352 353 355 358 0 1 359 355 354 353 350 344 339 340 311 227 206 203 211 215 216 208 203 203
78 157 197 233 263 305 302 318 334 145 208 241 241 270 321 347 345 347 348 346 348 351 353 353 354 353 350 350 351 348 344 344 346 349 349 309 249 231 222 209 211 213 205 197
87 226 242 258 279 273 286 295 293 242 235 237 265 274 314 328 326 331 337 342 349 351 352 350 348 348 347 349 350 349 343 344 347 349 348 340 314 278 231 209 204 208 206 208
62 196 297 281 289 291 295 304 289 274 268 263 288 291 325 327 335 338 338 342 344 342 342 343 343 344 344 342 340 341 338 335 339 339 337 343 352 339 296 241 216 206 205 203
53 151 301 283 319 341 298 298 280 269 331 213 258 300 330 331 330 325 323 333 334 334 335 336 337 334 333 331 328 326 325 327 336 335 336 344 344 341 320 289 240 228 219 203
175 158 190 295 9 261 250 40 63 145 54 21 335 331 328 320 312 303 316 337 336 334 333 334 333 332 332 330 329 325 324 328 331 331 333 339 340 332 331 314 265 249 237 222
187 162 160 179 257 275 291 6 27 253 282 18 336 329 337 337 329 324 3 353 333 327 327 328 328 327 330 332 332 332 330 333 333 329 326 328 328 322 316 304 284 259 248 255
48 92 135 157 223 250 274 319 311 143 280 344 343 333 341 354 346 314 337 337 331 332 332 331 331 333 333 331 334 338 334 336 328 320 315 313 311 303 296 289 283 274 249 250
40 49 157 200 232 264 285 307 14 140 282 323 322 323 328 309 275 298 319 324 326 327 328 330 330 332 329 329 335 334 332 326 319 318 313 310 304 294 286 287 289 282 269 257
186 181 202 176 216 261 7 86 152 253 316 323 318 317 308 299 304 311 316 322 327 330 331 332 331 328 328 332 336 331 326 321 321 321 317 308 304 298 299 288 286 274 256 249
202 199 201 199 217 267 134 193 274 325 305 307 310 311 311 307 309 314 317 319 323 325 326 328 326 325 328 332 332 321 318 321 322 321 316 312 308 301 293 276 272 265 244 247
280 304 198 262 271 270 271 303 333 322 304 306 307 307 308 304 306 309 313 318 322 322 322 324 325 326 326 329 326 314 313 318 317 314 312 311 312 308 298 285 269 259 252 251
240 177 224 263 285 313 295 286 312 323 326 329 326 317 310 307 307 307 309 312 314 317 320 321 319 318 317 320 319 319 318 315 314 310 309 310 309 304 306 299 282 270 250 243
199 188 197 240 248 240 272 293 315 318 318 319 322 321 318 308 302 306 306 307 310 312 316 316 315 313 313 315 315 316 314 311 309 312 313 310 307 306 308 309 311 303 288 281
Height
1468 1472 1472 1471 1472 1472 1474 1475 1475 1473 1473 1475 1474 1473 1469 1469 1469 1469 1469 1469 1469 1469 1470 1472 1472 1474 1476 1478 1479 1481 1484 1486 1489 1491 1493 1495 1497 1500 1502 1505 1507 1508 1510 1512
1472 1472 1469 1470 1471 1472 1473 1473 1473 1473 1473 1474 1475 1472 1468 1467 1468 1468 1467 1467 1467 1467 1468 1468 1469 1470 1472 1473 1476 1478 1480 1482 1485 1487 1490 1492 1494 1497 1499 1501 1503 1505 1507 1509
1471 1470 1468 1469 1470 1470 1471 1472 1471 1473 1474 1473 1474 1471 1467 1465 1465 1466 1466 1466 1466 1466 1465 1466 1466 1467 1469 1470 1472 1474 1476 1479 1481 1484 1486 1489 1491 1493 1496 1498 1500 1501 1503 1505
1472 1469 1469 1469 1469 1469 1469 1468 1469 1470 1474 1475 1474 1474 1466 1465 1465 1465 1465 1465 1464 1464 1464 1463 1464 1464 1465 1467 1469 1471 1473 1475 1477 1480 1482 1484 1485 1488 1490 1493 1496 1498 1500 1501
1471 1469 1469 1468 1467 1468 1467 1466 1467 1468 1471 1474 1474 1475 1467 1466 1466 1465 1465 1464 1463 1462 1462 1462 1462 1462 1464 1465 1466 1468 1470 1472 1474 1476 1478 1480 1482 1485 1487 1490 1492 1494 1496 1498
1471 1469 1469 1467 1467 1467 1467 1467 1468 1470 1472 1471 1468 1471 1466 1470 1468 1466 1465 1464 1462 1461 1461 1460 1460 1461 1461 1462 1463 1465 1466 1468 1470 1472 1474 1476 1478 1480 1483 1485 1487 1489 1491 1494
1471 1469 1468 1467 1468 1467 1468 1471 1473 1472 1473 1467 1466 1468 1470 1469 1468 1468 1466 1463 1461 1460 1460 1459 1459 1458 1459 1460 1461 1462 1463 1464 1466 1468 1470 1472 1474 1476 1478 1480 1483 1484 1486 1488
1476 1473 1469 1468 1469 1469 1469 1470 1473 1473 1472 1469 1470 1469 1470 1469 1468 1466 1465 1463 1461 1460 1459 1458 1458 1457 1457 1458 1458 1459 1460 1461 1462 1464 1465 1467 1470 1472 1473 1475 1477 1479 1481 1483
1480 1474 1470 1468 1467 1468 1469 1470 1471 1475 1475 1474 1471 1472 1470 1468 1467 1466 1464 1463 1462 1461 1460 1458 1457 1456 1456 1456 1456 1457 1457 1458 1459 1460 1461 1463 1465 1467 1469 1471 1473 1474 1476 1478
1480 1479 1472 1470 1468 1468 1469 1471 1476 1475 1473 1469 1468 1472 1472 1470 1469 1468 1467 1465 1463 1461 1460 1458 1456 1455 1455 1455 1455 1455 1455 1456 1456 1457 1458 1459 1461 1463 1465 1466 1468 1470 1471 1473
1480 1481 1476 1473 1472 1471 1472 1474 1475 1477 1474 1473 1474 1473 1473 1473 1472 1471 1470 1468 1466 1463 1461 1458 1456 1455 1455 1454 1453 1453 1453 1453 1453 1454 1455 1456 1457 1458 1460 1462 1463 1465 1467 1468
1480 1483 1481 1476 1473 1473 1473 1474 1476 1477 1477 1478 1476 1479 1475 1474 1474 1473 1471 1469 1467 1464 1462 1459 1457 1455 1454 1453 1452 1452 1451 1451 1451 1451 1452 1453 1453 1454 1456 1457 1459 1460 1462 1464
1480 1483 1482 1475 1476 1477 1477 1477 1477 1477 1479 1483 1481 1479 1475 1475 1474 1473 1472 1469 1467 1464 1461 1459 1457 1455 1454 1452 1451 1450 1450 1449 1449 1449 1449 1449 1449 1450 1451 1452 1454 1456 1457 1459
1478 1482 1483 1480 1476 1478 1480 1480 1479 1478 1479 1480 1478 1475 1476 1477 1475 1473 1472 1470 1467 1465 1462 1459 1457 1455 1453 1452 1450 1449 1448 1447 1447 1446 1446 1446 1446 1446 1447 1448 1449 1451 1452 1454
1479 1483 1483 1481 1479 1479 1479 1479 1479 1479 1478 1478 1476 1477 1479 1479 1477 1475 1473 1470 1467 1464 1462 1459 1457 1454 1452 1450 1449 1447 1446 1445 1445 1444 1443 1443 1443 1443 1444 1444 1445 1447 1448 1449
1480 1483 1483 1481 1479 1479 1480 1479 1478 1478 1479 1479 1478 1480 1480 1479 1477 1474 1472 1470 1467 1465 1462 1460 1457 1454 1452 1450 1448 1446 1445 1444 1443 1442 1441 1440 1440 1440 1441 1441 1442 1443 1444 1445
1483 1484 1484 1481 1481 1479 1480 1481 1480 1481 1483 1483 1482 1483 1480 1478 1476 1474 1472 1470 1468 1466 1463 1460 1457 1454 1452 1449 1447 1445 1443 1442 1441 1440 1439 1438 1438 1438 1438 1438 1439 1439 1440 1441
1482 1484 1486 1486 1485 1484 1483 1483 1482 1483 1485 1485 1484 1483 1481 1478 1475 1473 1471 1470 1467 1464 1461 1458 1456 1453 1451 1448 1446 1444 1442 1441 1439 1438 1437 1436 1435 1435 1435 1435 1436 1436 1437 1437
1480 1482 1487 1488 1488 1485 1483 1483 1484 1484 1483 1484 1483 1481 1479 1476 1472 1471 1470 1469 1467 1464 1461 1458 1455 1452 1449 1447 1445 1442 1440 1439 1437 1436 1435 1434 1433 1432 1432 1432 1433 1433 1433 1434
1483 1483 1487 1488 1486 1483 1482 1484 1482 1484 1482 1482 1481 1480 1479 1476 1475 1472 1470 1467 1465 1462 1460 1457 1454 1451 1448 1446 1443 1440 1438 1436 1435 1434 1433 1432 1431 1430 1430 1430 1430 1430 1430 1430
1488 1490 1491 1490 1490 1485 1485 1483 1482 1486 1483 1481 1480 1479 1478 1478 1477 1473 1469 1466 1463 1460 1457 1455 1452 1449 1446 1444 1441 1439 1437 1435 1433 1432 1431 1430 1429 1428 1428 1427 1427 1427 1427 1427
1491 1492 1494 1493 1491 1488 1485 1483 1486 1485 1482 1480 1479 1478 1477 1475 1473 1470 1467 1464 1461 1458 1455 1452 1449 1446 1444 1442 1439 1436 1434 1433 1431 1429 1428 1427 1426 1425 1425 1424 1423 1423 1423 1423
1491 1491 1490 1490 1487 1484 1483 1483 1483 1482 1481 1479 1478 1476 1475 1472 1470 1467 1465 1462 1459 1456 1453 1450 1447 1444 1442 1439 1437 1434 1432 1430 1428 1427 1425 1424 1423 1422 1422 1421 1420 1420 1420 1420
1490 1489 1489 1488 1483 1482 1481 1481 1480 1480 1479 1477 1476 1474 1472 1470 1468 1465 1462 1459 1456 1453 1451 1448 1445 1441 1439 1437 1435 1432 1430 1428 1426 1424 1422 1421 1420 1419 1418 1417 1417 1416 1416 1416
1487 1488 1488 1486 1482 1480 1479 1479 1478 1477 1476 1475 1473 1472 1470 1468 1465 1462 1459 1456 1454 1451 1448 1445 1442 1439 1436 1434 1432 1430 1428 1425 1423 1421 1419 1418 1417 1415 1414 1414 1413 1413 1413 1413
1484 1485 1486 1482 1480 1480 1478 1477 1476 1475 1473 1472 1470 1468 1467 1465 1462 1459 1457 1454 1451 1448 1445 1442 1440 1437 1434 1432 1429 1427 1425 1423 1420 1418 1417 1415 1414 1412 1411 1410 1410 1409 1410 1410